Preview of NWS' New Version of Forecast
This preview is not operational and should not be used for support decisions.

Regional Weather Roundup (RWR)

Issued by National Weather Service (NWS)

                            
000
ASUS46 KSEW 181410
RWRWA 

WASHINGTON REGIONAL WEATHER ROUNDUP
NATIONAL WEATHER SERVICE SEATTLE WA
700 AM PDT TUE JUN 18 2019

NOTE:"FAIR" INDICATES FEW OR NO CLOUDS BELOW 12,000 FEET WITH NO 
SIGNIFICANT WEATHER AND/OR OBSTRUCTIONS TO VISIBILITY.

WAZ507-509-555>559-181500-
SEATTLE, TACOMA, EVERETT, AND VICINITY
  
CITY           SKY/WX    TMP DP  RH WIND       PRES   REMARKS
EVERETT        LGT RAIN  54  53  97 N7        30.22R FOG              
BOEING FIELD   LGT RAIN  58  55  90 SE6       30.21R FOG              
RENTON         CLOUDY    59  56  89 N5        30.21R FOG              
SEATAC AIRPORT DRZL/FOG  56  54  93 S5        30.21R VSB 1            
JBLM-MCCHORD   CLOUDY    56  56 100 S5        30.21R                  
PUYALLUP       CLOUDY    55  55 100 CALM      30.21R FOG              
BREMERTON      LGT RAIN  55  54  94 E3        30.21R FOG              
JBLM-FT LEWIS  CLOUDY    57  57 100 S6        30.20R                  
TACOMA NARROWS CLOUDY    54  54 100 S5        30.21R FOG              
$$
 
WAZ001-503-506-510-514-515-181500-
NORTH INTERIOR
  
CITY           SKY/WX    TMP DP  RH WIND       PRES   REMARKS
BELLINGHAM     CLOUDY    60  53  77 S6        30.17R                  
FRIDAY HARBOR  CLOUDY    59  50  72 W7        30.19R                  
EASTSOUND      PTSUNNY   59  54  82 S7        30.17R                  
PORT ANGELES   SUNNY     56  50  80 W9        30.21R                  
EDIZ HOOK      FAIR      54  50  86 W10G20    30.21R                  
PORT TOWNSEND  CLOUDY    57  50  77 W8G20     30.20R                  
NAS WHIDBEY    PTSUNNY   58  50  75 W14       30.23R                  
ARLINGTON      CLOUDY    56  51  84 N9        30.22R                  
BURLINGTON     CLOUDY    57  52  82 SE5       30.20R                  
$$
 
WAZ020-022-039-040-504-511-512-181500-
SOUTHWEST INTERIOR
  
CITY           SKY/WX    TMP DP  RH WIND       PRES   REMARKS
SHELTON        CLOUDY    57  52  83 SW8       30.17R                  
OLYMPIA        CLOUDY    57  51  80 SW6       30.20R                  
CHEHALIS       CLOUDY    57  54  88 VRB7      30.23R                  
KELSO          CLOUDY    59  54  83 VRB6      30.24R                  
VANCOUVER      CLOUDY    61  52  72 NW5       30.23R                  
SCAPPOOSE, OR  PTSUNNY   61  52  72 N3        30.22R                  
PORTLAND, OR   PTSUNNY   62  52  69 NW8       30.23R                  
$$
 
WAZ021-516-517-181500-
WASHINGTON COAST
  
CITY           SKY/WX    TMP DP  RH WIND       PRES   REMARKS
FORKS          LGT RAIN  53  52  96 NW5       30.25R FOG              
HOQUIAM        SUNNY     56  52  86 NW13      30.23R                  
ASTORIA, OR    CLOUDY    56  51  84 NW10      30.26R                  
$$
 
WAZ019-023-024-040-567>569-181500-
CASCADE MOUNTAINS AND COLUMBIA GORGE
  
CITY           SKY/WX    TMP DP  RH WIND       PRES   REMARKS
STAMPEDE PASS  FOG       50  48  93 VRB6      30.19R VSB 1/4          
TROUTDALE, OR  CLOUDY    60  54  80 NE3       30.23R                  
HOOD RIVER, OR SUNNY     63  54  72 W6        30.14S                  
THE DALLES, OR SUNNY     65  53  65 NW17      30.09R                  
$$

WAZ026-027-041>044-520-521-181500-
EAST SLOPES
  
CITY           SKY/WX    TMP DP  RH WIND       PRES   REMARKS
OMAK           SUNNY     69  46  43 N8        29.97R                  
WENATCHEE      SUNNY     70  46  42 W9        30.00R                  
ELLENSBURG     SUNNY     65  50  58 NW25G32   30.03R                  
YAKIMA         SUNNY     71  48  43 N10       30.02R                  
SUNNYSIDE ARPT SUNNY     63  55  75 CALM      30.03                   
YAKIMA TC      FAIR      68  49  50 CALM      30.02R                  
$$

WAZ028-034-035-181500-
COLUMBIA BASIN
  
CITY           SKY/WX    TMP DP  RH WIND       PRES   REMARKS
EPHRATA        SUNNY     72  45  37 NW15G23   29.98R                  
MOSES LAKE     SUNNY     73  46  38 W10       29.99R                  
PASCO          SUNNY     71  54  54 SW9       30.01S                  
RICHLAND ARPT  SUNNY     72  53  51 S7        30.01R                  
HERMISTON, OR  SUNNY     68  51  54 SW15      30.03R                  
$$

WAZ036>038-181500-
NORTHEAST WASHINGTON
  
CITY           SKY/WX    TMP DP  RH WIND       PRES   REMARKS
SPOKANE GEIGER MOSUNNY   61  46  57 S16       29.98R                  
SPOKANE FELTS  SUNNY     64  48  56 SW9       29.98S                  
FAIRCHILD AFB  SUNNY     60  47  63 S12       29.97S                  
COEURDALENE,ID SUNNY     62  49  62 S14       29.99S                  
DEER PARK      SUNNY     61  49  64 S8        29.98R                  
$$

WAZ029>033-181500-
SOUTHEAST WASHINGTON
  
CITY           SKY/WX    TMP DP  RH WIND       PRES   REMARKS
PULLMAN        SUNNY     63  51  65 W13G22    30.06R                  
LEWISTON, ID   SUNNY     66  51  58 S3        30.02R                  
WALLA WALLA    SUNNY     68  50  52 S9        30.06R                  
PENDLETON, OR  SUNNY     66  48  52 SW7       30.07R                  
$$